FW1440 Weather Reports


time (UTC)temp
F
wind
direction
speed
knots
gust
knots
rain 1hr
in
rain 24hr
in
rain mn
in
humidity
%
barometer
mb
20260505073853 53 153 2.6 6.1 0.00 0.00 0.00 84 1008.9
20260505072842 53 276 2.6 13.9 0.00 0.00 0.00 84 1008.9
20260505071838 53 122 2.6 9.6 0.00 0.00 0.00 83 1008.9
20260505071338 53 39 2.6 9.6 0.00 0.00 0.00 83 1008.8
20260505070838 54 117 2.6 8.7 0.00 0.00 0.00 82 1008.8
20260505065836 54 310 3.5 8.7 0.00 0.00 0.00 81 1008.6
20260505065337 54 101 2.6 8.7 0.00 0.00 0.00 81 1008.6
20260505064836 54 45 3.5 8.7 0.00 0.00 0.00 80 1008.5
20260505064337 55 103 3.5 9.6 0.00 0.00 0.00 80 1008.5
20260505063837 55 125 2.6 9.6 0.00 0.00 0.00 80 1008.4
20260505063336 55 157 1.7 8.7 0.00 0.00 0.00 79 1008.5
20260505062833 55 107 1.7 8.7 0.00 0.00 0.00 78 1008.4
20260505062331 55 135 0.9 3.5 0.00 0.00 0.00 77 1008.4
20260505061831 55 92 0.9 3.5 0.00 0.00 0.00 76 1008.3
20260505061329 55 93 0.9 3.5 0.00 0.00 0.00 75 1008.3
20260505060826 55 295 0.9 3.5 0.00 0.00 0.00 75 1008.2
20260505055322 56 297 0.0 1.7 0.00 0.00 0.00 73 1008.0
20260505054821 56 295 0.9 2.6 0.00 0.00 0.00 73 1008.0
20260505054320 56 295 0.9 2.6 0.00 0.00 0.00 72 1008.1
20260505053821 57 43 0.9 1.7 0.00 0.00 0.00 72 1008.0
20260505053320 57 43 0.9 2.6 0.00 0.00 0.00 71 1007.9
20260505052320 58 51 0.9 2.6 0.00 0.00 0.00 70 1007.8
20260505051819 58 51 0.9 2.6 0.00 0.00 0.00 70 1007.8
20260505050819 58 122 0.9 4.3 0.00 0.00 0.00 69 1007.7
20260505041322 60 126 3.5 7.8 0.00 0.00 0.00 67 1007.1
20260505040817 60 116 2.6 7.8 0.00 0.00 0.00 67 1007.1
20260505040317 60 116 2.6 7.0 0.00 0.00 0.00 66 1007.0
20260505035818 60 139 2.6 6.1 0.00 0.00 0.00 66 1006.9
20260505035317 61 118 1.7 5.2 0.00 0.00 0.00 66 1006.8
20260505034817 61 119 1.7 5.2 0.00 0.00 0.00 66 1006.9
20260505034316 61 135 1.7 7.0 0.00 0.00 0.00 65 1006.8
20260505033315 62 149 0.9 4.3 0.00 0.00 0.00 65 1006.8
20260505032814 62 154 0.9 2.6 0.00 0.00 0.00 65 1006.7
20260505031814 62 119 1.7 4.3 0.00 0.00 0.00 64 1006.6
20260505031315 63 124 1.7 4.3 0.00 0.00 0.00 64 1006.6
20260505030815 63 118 0.9 4.3 0.00 0.00 0.00 63 1006.5
20260505030315 64 105 0.0 2.6 0.00 0.00 0.00 64 1006.5
20260505025814 64 100 0.0 1.7 0.00 0.00 0.00 64 1006.4
20260505025315 64 124 0.9 1.7 0.00 0.00 0.00 65 1006.4
20260505024310 65 124 0.9 2.6 0.00 0.00 0.00 63 1006.4
20260505023810 65 304 0.9 2.6 0.00 0.00 0.00 63 1006.4
20260505023311 65 304 0.9 2.6 0.00 0.00 0.00 63 1006.4
20260505022811 67 304 0.9 1.7 0.00 0.00 0.00 61 1006.4
20260505022310 67 304 0.0 2.6 0.00 0.00 0.00 60 1006.4
20260505021810 68 304 0.0 2.6 0.00 0.00 0.00 59 1006.5
20260505021311 69 304 0.9 1.7 0.00 0.00 0.00 58 1006.5
20260505020811 69 304 0.9 3.5 0.00 0.00 0.00 57 1006.5
20260505020311 69 304 1.7 3.5 0.00 0.00 0.00 57 1006.5
20260505015810 69 305 0.9 3.5 0.00 0.00 0.00 58 1006.5
20260505015311 69 316 0.9 1.7 0.00 0.00 0.00 58 1006.5
20260505014307 69 304 0.9 2.6 0.00 0.00 0.00 58 1006.6
20260505013806 69 318 0.9 2.6 0.00 0.00 0.00 57 1006.6
20260505013308 70 318 1.7 3.5 0.00 0.00 0.00 54 1006.6
20260505012307 72 137 1.7 6.1 0.00 0.00 0.00 49 1006.6
20260505011306 73 114 1.7 6.1 0.00 0.00 0.00 46 1006.7
20260505010804 73 82 1.7 6.1 0.00 0.00 0.00 44 1006.7
20260505010303 73 109 1.7 5.2 0.00 0.00 0.00 43 1006.7
20260505005802 73 126 2.6 7.8 0.00 0.00 0.00 43 1006.7
20260505005303 73 109 2.6 7.8 0.00 0.00 0.00 41 1006.7
20260505004800 74 91 1.7 7.0 0.00 0.00 0.00 42 1006.8
20260505004301 74 110 1.7 6.1 0.00 0.00 0.00 41 1006.8
20260505003800 73 133 1.7 7.0 0.00 0.00 0.00 41 1006.8
20260505003303 73 111 2.6 7.0 0.00 0.00 0.00 42 1006.8
20260505002800 73 130 2.6 9.6 0.00 0.00 0.00 43 1006.9
20260505002258 73 118 1.7 9.6 0.00 0.00 0.00 42 1006.9
20260505001756 73 110 1.7 9.6 0.00 0.00 0.00 43 1006.9
20260505001255 73 164 1.7 9.6 0.00 0.00 0.00 45 1007.1
20260505000756 73 141 2.6 7.0 0.00 0.00 0.00 46 1007.0
20260505000254 73 141 2.6 8.7 0.00 0.00 0.00 45 1007.0
20260504235754 73 141 3.5 8.7 0.00 0.00 0.00 45 1007.0
20260504235254 72 110 3.5 8.7 0.00 0.00 0.00 46 1007.0
20260504234752 72 126 4.3 9.6 0.00 0.00 0.00 46 1007.1
20260504234252 72 130 5.2 9.6 0.00 0.00 0.00 46 1007.1
20260504233752 71 124 5.2 9.6 0.00 0.00 0.00 46 1007.1
20260504233252 72 116 5.2 10.4 0.00 0.00 0.00 46 1007.1
20260504232251 72 122 4.3 10.4 0.00 0.00 0.00 44 1007.1
20260504231752 73 130 5.2 9.6 0.00 0.00 0.00 48 1007.1
20260504231253 73 139 3.5 9.6 0.00 0.00 0.00 46 1007.2
20260504230251 74 117 3.5 8.7 0.00 0.00 0.00 46 1007.4
20260504225745 74 113 3.5 8.7 0.00 0.00 0.00 48 1007.3
20260504224744 74 137 3.5 7.8 0.00 0.00 0.00 48 1007.4
20260504224244 76 111 2.6 8.7 0.00 0.00 0.00 46 1007.4
20260504223741 76 143 2.6 8.7 0.00 0.00 0.00 49 1007.5
20260504222740 77 143 1.7 6.1 0.00 0.00 0.00 48 1007.4
20260504222241 77 121 1.7 6.1 0.00 0.00 0.00 46 1007.5
20260504221738 77 182 1.7 6.1 0.00 0.00 0.00 47 1007.5
20260504221239 77 176 2.6 6.1 0.00 0.00 0.00 50 1007.4
20260504220738 77 153 2.6 7.0 0.00 0.00 0.00 49 1007.5
20260504220238 77 145 1.7 7.0 0.00 0.00 0.00 51 1007.5
20260504215736 76 167 1.7 3.5 0.00 0.00 0.00 58 1007.6
20260504215236 74 231 1.7 2.6 0.00 0.00 0.00 60 1007.7
20260504214735 73 256 0.9 1.7 0.00 0.00 0.00 62 1007.8
20260504214238 72 233 0.9 2.6 0.00 0.00 0.00 63 1007.8
20260504213736 71 232 1.7 3.5 0.00 0.00 0.00 64 1007.8
20260504213236 70 226 1.7 3.5 0.00 0.00 0.00 65 1007.9
20260504212734 69 230 0.9 2.6 0.00 0.00 0.00 64 1007.9
20260504211233 71 210 1.7 3.5 0.00 0.00 0.00 60 1007.9
20260504210234 71 245 0.9 1.7 0.00 0.00 0.00 65 1008.0
20260504205734 71 245 0.9 2.6 0.00 0.00 0.00 61 1008.0
20260504205232 72 245 0.9 2.6 0.00 0.00 0.00 60 1008.1
20260504204731 73 245 0.9 2.6 0.00 0.00 0.00 61 1008.1
20260504204228 72 214 0.9 2.6 0.00 0.00 0.00 62 1008.1
20260504203728 70 219 0.9 2.6 0.00 0.00 0.00 62 1008.2
20260504203225 70 193 0.9 3.5 0.00 0.00 0.00 65 1008.2
20260504202224 70 227 0.9 3.5 0.00 0.00 0.00 63 1008.2
20260504201222 72 242 1.7 2.6 0.00 0.00 0.00 61 1008.4
20260504200719 73 249 1.7 3.5 0.00 0.00 0.00 60 1008.3
20260504194717 72 237 1.7 3.5 0.00 0.00 0.00 63 1008.4
20260504194217 72 229 1.7 2.6 0.00 0.00 0.00 63 1008.3
20260504193717 71 224 1.7 3.5 0.00 0.00 0.00 61 1008.3
20260504193216 71 246 1.7 3.5 0.00 0.00 0.00 61 1008.3
20260504192709 71 218 1.7 3.5 0.00 0.00 0.00 63 1008.3
20260504192204 70 199 1.7 3.5 0.00 0.00 0.00 64 1008.4
20260504191702 69 226 1.7 2.6 0.00 0.00 0.00 66 1008.4
20260504190702 69 234 1.7 3.5 0.00 0.00 0.00 65 1008.4
20260504190159 69 217 1.7 3.5 0.00 0.00 0.00 66 1008.4
20260504185700 69 216 1.7 3.5 0.00 0.00 0.00 64 1008.4
20260504185200 69 256 0.9 3.5 0.00 0.00 0.00 64 1008.4
20260504184159 68 187 0.9 2.6 0.00 0.00 0.00 63 1008.4
20260504183659 68 185 1.7 2.6 0.00 0.00 0.00 65 1008.4
20260504183159 69 241 1.7 2.6 0.00 0.00 0.00 63 1008.4
20260504182200 68 245 0.9 2.6 0.00 0.00 0.00 65 1008.4
20260504180655 68 245 0.9 3.5 0.00 0.00 0.00 67 1008.4
20260504180156 68 206 0.9 2.6 0.00 0.00 0.00 65 1008.4
20260504175656 68 223 0.9 2.6 0.00 0.00 0.00 66 1008.5
20260504175155 68 237 0.9 2.6 0.00 0.00 0.00 66 1008.5
20260504174655 68 236 0.9 2.6 0.00 0.00 0.00 65 1008.5
20260504173155 69 205 0.9 3.5 0.00 0.00 0.00 65 1008.5
20260504172653 69 223 0.9 2.6 0.00 0.00 0.00 63 1008.5
20260504172150 69 225 0.9 2.6 0.00 0.00 0.00 64 1008.5
20260504171650 69 220 0.9 2.6 0.00 0.00 0.00 64 1008.5
20260504171147 69 211 0.9 2.6 0.00 0.00 0.00 66 1008.4
20260504170645 67 183 0.9 2.6 0.00 0.00 0.00 68 1008.4
20260504170145 66 170 0.9 2.6 0.00 0.00 0.00 67 1008.4
20260504160137 65 9 0.9 2.6 0.00 0.00 0.00 66 1008.3
20260504151127 61 300 0.9 2.6 0.00 0.00 0.00 76 1008.3
20260504150628 60 316 0.9 2.6 0.00 0.00 0.00 80 1008.2
20260504141051 52 124 0.0 1.7 0.00 0.00 0.00 88 1008.0
20260504140552 51 220 0.0 0.0 0.00 0.00 0.00 88 1007.9
20260504130540 49 220 0.0 0.9 0.00 0.00 0.00 88 1007.2
20260504110459 50 220 0.0 0.0 0.00 0.00 0.00 85 1007.2
20260504100447 51 220 0.0 0.0 0.00 0.00 0.00 82 1007.1
20260504081938 52 220 0.0 0.0 0.00 0.00 0.00 79 1007.2
20260504081437 52 220 0.0 0.0 0.00 0.00 0.00 79 1007.2
20260504080937 53 220 0.0 0.0 0.00 0.00 0.00 79 1007.2
20260504080437 53 220 0.0 0.0 0.00 0.00 0.00 79 1007.2